Location: Adliswil
(47.3119°N, 8.5287°E)
Time: 23:19:29
(UTC+00:00)

Daily predictions for brighter satellites

Satellite Brightness Start Highest point End
(mag) Time Altitude Azimuth Time Altitude Azimuth Time Altitude Azimuth
Cosmos 2360 4.5 16:02:42 10° NNW 16:08:15 48° NE 16:13:46 10° SE
Lacrosse 5 rocket 2.7 16:08:20 10° NW 16:11:22 22° NNE 16:14:31 10° ENE
Cosmos 1743 Rocket 3.8 16:07:27 10° N 16:11:38 46° ENE 16:15:48 10° SSE
Meteor 1-20 Rocket 4.5 16:05:59 10° N 16:11:40 51° ENE 16:17:22 10° SSE
Okean O Rocket 3.3 16:12:55 10° E 16:15:18 14° ENE 16:17:41 10° NNE
USA 267 3.4 16:14:26 10° NE 16:21:00 75° SE 16:27:32 10° SW
H-2A R/B 2.7 16:19:30 10° SE 16:23:58 31° ENE 16:28:22 10° N
SJ 16-02 3.8 16:21:33 10° NW 16:25:13 27° W 16:28:53 10° SSW
Cosmos 1763 Rocket 3.5 16:22:21 10° S 16:27:21 67° ESE 16:32:27 10° NNE
CZ-4B R/B 2.9 16:24:11 10° SSE 16:28:15 87° WSW 16:32:07 10° NNW
USA 276 3.7 16:26:17 10° W 16:29:12 36° SSW 16:32:05 10° SE
USA 305 3.9 16:25:26 10° WNW 16:29:18 33° N 16:32:46 12° ENE
Cosmos 1656 4.3 16:25:36 10° NNW 16:31:04 61° WSW 16:36:35 10° S
Cosmos 1933 3.6 16:29:32 10° SSE 16:33:26 47° E 16:37:19 10° NNE
Cosmos 841 Rocket 4.1 16:29:15 10° SSE 16:33:53 35° ESE 16:38:31 10° NE
PSLV R/B 4.2 16:31:04 10° SE 16:34:27 36° ENE 16:37:54 10° N
Cosmos 1464 Rocket 4.5 16:29:09 10° SSW 16:35:29 68° W 16:41:52 10° N
USA 229 DEB 4.0 16:28:45 10° NW 16:36:06 87° SW 16:43:56 10° SE
USA 229 4.0 16:28:51 10° NW 16:36:12 88° SW 16:44:01 10° SE
Cosmos 1937 Rocket 3.5 16:32:09 10° NNW 16:37:28 63° ENE 16:42:43 10° SSE
Cosmos 1500 Rocket 3.6 16:35:43 10° N 16:40:11 84° W 16:44:35 10° S
Cosmos 1666 3.8 16:37:33 10° NNE 16:40:26 21° ENE 16:43:18 10° ESE
Nadezhda 4 Rocket 4.3 16:35:41 10° NNW 16:42:00 73° W 16:48:18 10° S
SL-24 R/B - RUBIN 2 3.7 16:38:29 10° NNW 16:42:59 50° NE 16:47:12 10° ESE
ATLAS 2AS CENTAUR R/B 4.3 16:38:05 10° WNW 16:44:09 24° NNW 16:49:58 10° NE
Cosmos 2322 Rocket 3.7 16:40:35 10° N 16:44:09 17° NE 16:45:58 15° ENE
FengYun 1-2 T 4.4 16:40:17 10° SSE 16:45:53 82° WSW 16:51:28 10° NNW
Cosmos 1697 Rocket 2.7 16:41:08 10° NNW 16:46:48 88° WSW 16:52:25 10° SSE
Cosmos 372 Rocket 4.1 16:43:32 10° NNW 16:48:39 52° ENE 16:53:46 10° SE
NOAA 6 4.0 16:44:07 10° SSE 16:49:16 89° ENE 16:54:26 10° NNW
Sich 1 3.0 16:45:41 10° N 16:49:56 58° ENE 16:54:11 10° SSE
Cosmos 1980 Rocket 2.2 16:45:31 10° NNW 16:51:07 56° ENE 16:56:39 10° SE
Cosmos 2221 4.0 16:47:49 10° SW 16:51:48 37° WNW 16:55:50 10° N
Cosmos 1805 Rocket 3.4 16:47:35 10° N 16:51:57 78° E 16:56:16 10° SSE
Cosmos 2369 3.7 16:47:18 10° NNW 16:53:04 72° ENE 16:58:46 10° SE
USA 234 3.3 16:48:29 10° SE 16:55:03 84° SW 17:01:37 10° NW
CZ-4C R/B 3.0 16:50:38 10° NW 16:57:33 58° NE 17:05:42 10° ESE
Cosmos 1092 Rocket 4.0 16:51:33 10° N 16:57:57 90° E 17:04:18 10° S
Cosmos 1812 3.3 16:56:56 10° SSE 17:00:27 35° E 17:02:42 19° NE
Cosmos 1428 Rocket 4.4 16:54:31 10° N 17:00:41 83° E 17:06:52 10° S
USA 306 3.9 16:57:44 10° WNW 17:01:36 33° N 17:03:35 22° NE
SL-16 R/B 3.2 16:57:41 10° N 17:02:18 25° NE 17:04:16 21° ENE
ISS -3.8 16:59:40 10° WNW 17:03:05 78° NNE 17:04:59 24° ESE
deb Chang Zheng 4 3.9 17:00:40 10° SE 17:04:44 43° ENE 17:08:49 10° N
MOS 1-B Rocket 4.2 16:59:07 10° NNE 17:04:55 55° ESE 17:11:28 10° S
NOSS 2-2 (D) 4.3 17:00:05 10° NW 17:05:13 80° NE 17:12:26 10° SE
SMAP 3.5 17:00:42 10° S 17:05:19 64° WSW 17:09:58 10° NNW
NOSS 2-2 (E) 4.5 17:00:15 10° NW 17:05:33 88° SW 17:13:04 10° SE
Cosmos 2082 Rocket 2.3 17:00:52 10° S 17:06:22 55° ESE 17:10:43 16° NE
Cosmos 1939 Rocket 3.8 17:02:34 10° S 17:06:36 52° W 17:10:36 10° NNW
CORIOLIS 4.4 17:02:51 10° S 17:08:15 73° WSW 17:13:42 10° NNW
Cosmos 44 Rocket 3.8 17:07:50 10° NNW 17:12:26 37° NE 17:14:23 26° E
Cosmos 2333 Rocket 4.1 17:10:29 10° N 17:12:25 12° NNE 17:12:25 12° NNE
Meteor 2-16 Rocket 4.4 17:08:29 10° N 17:14:33 61° ENE 17:20:36 10° SSE
CZ-4B DEB 4.4 17:09:06 10° S 17:14:36 75° WSW 17:20:08 10° NNW
Cosmos 2278 3.7 17:11:26 10° NNW 17:17:08 64° ENE 17:22:47 10° SE
Cosmos 2142 Rocket 4.4 17:12:28 10° S 17:18:29 62° E 17:24:38 10° NNE
USA 307 3.8 17:16:32 10° WNW 17:20:27 34° N 17:21:38 28° NE
Cosmos 540 Rocket 3.6 17:16:16 10° SSW 17:21:21 74° WNW 17:26:07 12° NNE
ARGOS 3.1 17:19:25 10° SSE 17:24:45 62° ENE 17:30:06 10° N
COSMO-SKYMED 1 2.6 17:23:24 23° NNE 17:26:00 56° E 17:30:15 10° S
Cosmos 1570 Rocket 4.1 17:20:58 10° S 17:26:02 52° ESE 17:28:35 27° NE
Cosmos 2279 Rocket 3.9 17:19:56 10° S 17:26:05 67° E 17:32:14 10° NNE
Cosmos 2298 Rocket 4.5 17:22:03 10° N 17:27:03 39° ENE 17:28:50 30° E
COSMOS 2406 3.5 17:21:25 10° SW 17:27:08 69° WNW 17:32:10 14° NNE
Cosmos 1833 Rocket 3.4 17:23:02 10° SW 17:28:31 53° WNW 17:33:42 12° NNE
Cosmos 1782 3.3 17:25:37 10° SSW 17:29:33 61° W 17:33:32 10° N
Cosmos 2266 Rocket 4.3 17:23:47 10° N 17:29:53 45° ENE 17:35:59 10° SE
Cosmos 1814 Rocket 3.9 17:25:41 10° S 17:30:51 65° ESE 17:33:44 26° NNE
ATLAS 5 CENTAUR R/B 2.3 17:25:38 10° NW 17:32:41 44° NNE 17:33:08 41° NE
Cosmos 921 Rocket 4.2 17:30:22 10° SSE 17:32:43 25° SE 17:32:43 25° SE
Helios 1B 4.5 17:32:06 27° NNE 17:34:24 67° ESE 17:38:42 10° S
Cosmos 1633 Rocket 2.9 17:30:44 10° N 17:35:08 79° E 17:39:31 10° SSE
ATLAS CENTAUR R/B 4.1 17:35:22 10° NNW 17:36:10 10° NNW 17:36:58 10° N
Cosmos 1818 3.6 17:31:09 10° NNW 17:36:35 57° NE 17:38:50 33° ESE
YAOGAN 1 4.1 17:39:35 21° NNE 17:39:35 21° NNE 17:41:16 10° N
Cosmos 2219 Rocket 4.2 17:35:14 10° N 17:36:27 12° NNE 17:36:27 12° NNE
GEOS 3 Rocket 3.8 17:37:58 37° E 17:39:33 50° NE 17:44:33 10° NNW
CZ-2D R/B 4.4 17:36:24 10° S 17:40:05 44° W 17:43:47 10° NNW
Meteor 2-6 Rocket 4.2 17:35:18 10° S 17:40:59 64° E 17:45:14 18° NNE
SL-19 R/B 4.5 17:36:06 10° NNE 17:42:16 80° ESE 17:48:55 10° SSW
SJ-11-01 4.2 17:37:59 10° SSE 17:42:44 88° ENE 17:47:31 10° NNW
USA 308 3.7 17:39:08 10° WNW 17:43:05 36° N 17:43:13 36° NNE
Cosmos 1634 Rocket 4.5 17:36:53 10° SSW 17:43:08 62° WNW 17:49:26 10° N
COSMOS 2455 3.0 17:38:29 10° SW 17:44:30 75° NW 17:48:14 25° NNE
CZ-2C R/B 2.4 17:40:35 12° NNE 17:45:25 85° ESE 17:50:35 10° SSW
CZ-4B R/B 3.3 17:41:34 10° S 17:46:58 73° WSW 17:52:20 10° NNW
Cosmos 1151 Rocket 3.1 17:44:14 10° SSW 17:48:33 74° W 17:51:27 21° N
Okean O Rocket 1.7 17:46:36 10° S 17:51:03 78° WSW 17:55:32 10° NNW
Lacrosse 5 rocket 1.6 17:47:13 10° NW 17:50:36 51° N 17:50:36 51° N
Meteor 2-15 4.3 17:52:20 10° S 17:58:24 73° E 18:03:29 15° NNE
Cosmos 2208 Rocket 3.9 17:54:38 10° SSW 18:00:01 81° ESE 18:01:39 47° NNE
Meteor 1-10 Rocket 4.1 17:57:07 10° S 18:02:52 71° E 18:04:52 41° NNE
Meteor 1-11 Rocket 3.6 17:57:33 10° N 18:03:09 65° ENE 18:05:46 32° SSE
H-2A R/B 3.4 17:58:28 10° SSW 18:03:18 39° W 18:08:03 10° NNW
USA 267 3.8 18:01:03 32° NE 18:03:51 51° NNW 18:10:07 10° W
Cosmos 1470 Rocket 3.5 17:59:43 10° N 18:04:12 88° W 18:08:41 10° S
Cosmos 2150 Rocket 3.8 17:59:24 10° NNW 18:04:35 70° ENE 18:04:48 69° E
Cosmos 1328 Rocket 3.8 18:01:40 10° SSW 18:06:06 69° WNW 18:07:30 41° N
Cosmos 1655 Rocket 3.9 17:59:53 10° N 18:06:20 83° E 18:12:42 10° S
Landsat 5 3.5 18:08:42 72° W 18:08:42 72° W 18:12:29 10° SSW
Cosmos 2360 Rocket 3.4 18:04:05 10° NNW 18:07:10 26° NNE 18:07:10 26° NNE
USA 305 4.0 18:05:46 10° NW 18:08:46 36° NNW 18:08:46 36° NNW
SKYMED 2 4.5 18:12:00 27° NNW 18:14:03 47° WNW 18:18:12 10° SW
Feng Yun 1-1 Rocket 4.4 18:10:28 10° SSE 18:16:23 79° WSW 18:22:18 10° NNW
ATLAS CENTAUR R/B 3.2 18:13:37 10° W 18:20:21 38° NNW 18:20:43 37° NNW
Cosmos 1125 Rocket 3.5 18:17:25 10° NNW 18:22:15 76° NNW 18:22:15 76° NNW
Cosmos 2322 Rocket 2.7 18:23:36 10° NNW 18:27:49 49° N 18:27:49 49° N
Cosmos 1980 Rocket 4.3 18:30:10 10° NW 18:34:44 25° WSW 18:39:15 10° SSW
ATLAS 2AS CENTAUR R/B 4.1 18:31:43 10° NW 18:37:27 25° NNE 18:37:27 25° NNE
ISS -0.7 18:36:55 10° W 18:37:59 16° W 18:37:59 16° W
CZ-4C R/B 3.9 18:39:15 10° NW 18:46:14 46° WSW 18:54:13 10° S
SL-16 R/B 2.6 18:41:18 10° NNW 18:46:11 61° WNW 18:46:11 61° WNW
Cosmos 2082 Rocket 3.8 18:45:50 10° WSW 18:50:46 30° NW 18:52:35 25° NNW
Cosmos 2333 Rocket 4.3 18:53:02 10° NNW 18:54:27 17° N 18:54:27 17° N
